Weather in Neyshabur

Iran     36°13′29″N   58°46′56″E
temp.,
°C
wind,
m/s
gust,
m/s
humid.,
%
clouds,
%
prec.,
mm/h
press.,
hPa
HPBL,
m
23 april, fri
fri2301:30+17wsw013118 0.0 1018127
04:30+16ssw113359 0.0 101784
07:30+18wsw10315 0.0 1018136
10:30+22ssw11255 0.0 1017517
13:30+26sw221947 0.0 10141371
16:30+28s231465 0.0 10112656
19:30+26se5613100 0.0 1012363
22:30+22nne121571 0.0 1015208
24 april, sat
sat2401:30+19wnw132139 0.0 1016284
04:30+18se112465 0.0 101776
07:30+19w011776 0.0 1018215
10:30+22sw12155 0.0 1017952
13:30+26sw321215 0.0 10151724
16:30+27sse541239 0.0 10132087
19:30+23se451790 0.0 1014413
22:30+21se232387 0.0 1015190
25 april, sun
sun2501:30+19ese122788 0.0 1015138
04:30+18ese0127100 0.0 101667
07:30+19s012439 0.0 1017190
10:30+23wsw211949 0.0 1017740
13:30+28s3313100 0.0 10131767
16:30+27se6512100 0.0 10132080
19:30+25e351475 0.0 1014458
22:30+21ene23185 0.0 1016129
26 april, mon
mon2601:30+19ne222413 0.0 101559
04:30+18e11255 0.0 101556
07:30+20nw01220 0.0 1015159
10:30+24sw11175 0.0 1014613
13:30+28s22126 0.0 10111915
16:30+29ssw021146 0.0 10093347
19:30+27e221238 0.0 1009544
22:30+24ene1216100 0.0 101153
27 april, tue
tue2701:30+22nne111820 0.0 101112
04:30+21ene00195 0.0 101111
07:30+23se011778 0.0 101271
10:30+27wsw101498 0.0 1012582
13:30+30wsw3311100 0.0 10092923
16:30+31sw229100 0.0 10083683
19:30+29e341232 0.0 1008481
22:30+25ene351552 0.0 1011272